Location: Olsztyn
(53.7767°N, 20.4765°E)
Time: 19:24:55
(UTC+02:00)

BlueWalker 3 - Visible Passes

Search period start: 30 September 2023 00:00
Search period end: 10 October 2023 00:00
Orbit: 491 x 508 km, 53.2° (Epoch: 29 September)

Date Brightness Start Highest point End Pass type
(mag) Time Alt. Az. Time Alt. Az. Time Alt. Az.
30 Sep 2.5 03:59:46 49° SE 03:59:46 49° SE 04:02:44 10° ESE visible
30 Sep 3.0 05:34:25 14° W 05:36:59 28° SSW 05:40:20 10° SSE visible
01 Oct 3.8 03:39:24 25° ESE 03:39:24 25° ESE 03:41:08 10° ESE visible
01 Oct 2.9 05:14:03 23° WSW 05:15:23 28° SSW 05:18:44 10° SSE visible
02 Oct 4.7 03:19:09 12° ESE 03:19:09 12° ESE 03:19:32 10° ESE visible
02 Oct 2.9 04:53:48 28° SSW 04:53:48 28° SSW 04:57:08 10° SSE visible
03 Oct 3.6 04:33:42 21° S 04:33:42 21° S 04:35:30 10° SSE visible
04 Oct 4.6 04:13:44 11° SSE 04:13:44 11° SSE 04:13:52 10° SSE visible
